The Glenridge on Palmer Ranch FL US WEATHERSTEM current weather conditions

sailwx.info

Wind from 048 at 1 knots gusting 1

Air temperature 26.4° C
Dewpoint 24.3° C

Last reported at 2020-Jul-05 04:00 UTC.
Time now 2020-Jul-05 04:28 UTC

Location: N 27°15' W 082°28'.
View on Google Maps.

See reports from other nearby stations

  
Tides and Currents Weather Stations Pressure Air Temp Water Temp Dewpoint Dewpoint Depression Visibility Wind Speed Wind Dir Waves Ship Positions
date/time (UTC)wind fromknots sea level pressurealtimeterstation pressurevisibilityair tempwater tempwave heightnotes
2020-Jul-05 04:00 048 1 gusting 1 26.4
2020-Jul-05 03:50 048 0 gusting 1 26.4
2020-Jul-05 03:40 26.4
2020-Jul-05 03:30 048 0 gusting 1 26.4
2020-Jul-05 03:20 26.3
2020-Jul-05 03:10 26.3
2020-Jul-05 03:00 26.2
2020-Jul-05 02:50 048 1 gusting 2 26.1
2020-Jul-05 02:40 048 0 gusting 2 26.4
2020-Jul-05 02:30 048 0 gusting 2 26.6
2020-Jul-05 02:20 048 0 gusting 2 26.5
2020-Jul-05 02:10 046 1 gusting 1 26.4
2020-Jul-05 02:00 046 0 gusting 1 26.4
2020-Jul-05 01:50 046 1 gusting 1 26.4
2020-Jul-05 01:40 26.4
2020-Jul-05 01:30 26.6
2020-Jul-05 01:20 046 2 gusting 2 26.4
2020-Jul-05 01:00 037 1 gusting 3 26.6
2020-Jul-05 00:50 011 2 gusting 4 26.8
2020-Jul-05 00:40 350 3 gusting 11 27.8
2020-Jul-05 00:30 281 2 gusting 6 29.3
2020-Jul-05 00:20 274 2 gusting 4 29.3
2020-Jul-05 00:10 250 6 gusting 6 29.4
2020-Jul-05 00:00 247 3 gusting 4 29.4
2020-Jul-04 23:50 269 2 gusting 6 29.6
2020-Jul-04 23:40 288 1 gusting 6 29.6
2020-Jul-04 23:30 260 1 gusting 6 29.6
2020-Jul-04 23:20 267 6 gusting 8 29.5
2020-Jul-04 23:10 259 5 gusting 9 29.5
2020-Jul-04 23:00 309 4 gusting 8 29.9
2020-Jul-04 22:50 292 0 gusting 8 29.8
2020-Jul-04 22:40 275 3 gusting 9 29.8
2020-Jul-04 22:30 253 2 gusting 7 30.1
2020-Jul-04 22:20 265 3 gusting 10 30.1
2020-Jul-04 22:10 271 6 gusting 9 30.4
2020-Jul-04 22:00 294 1 gusting 13 30.6
2020-Jul-04 21:50 221 0 gusting 13 30.7
2020-Jul-04 21:40 275 1 gusting 10 30.8
2020-Jul-04 21:30 313 3 gusting 13 30.6
2020-Jul-04 21:20 309 2 gusting 12 31.0
2020-Jul-04 21:10 226 6 gusting 13 31.0
2020-Jul-04 21:00 265 2 gusting 10 31.9
2020-Jul-04 20:50 325 3 gusting 12 31.7
2020-Jul-04 20:40 296 6 gusting 12 31.6
2020-Jul-04 20:30 229 5 gusting 13 31.6
2020-Jul-04 20:20 058 1 gusting 12 30.8
2020-Jul-04 20:10 261 7 gusting 13 31.3
2020-Jul-04 20:00 245 9 gusting 12 31.8
2020-Jul-04 19:50 267 6 gusting 14 32.1
2020-Jul-04 19:40 234 9 gusting 11 31.9
2020-Jul-04 19:30 219 4 gusting 19 31.2
2020-Jul-04 19:20 234 4 gusting 13 32.3
2020-Jul-04 19:10 311 5 gusting 15 31.7
2020-Jul-04 19:00 278 8 gusting 12 32.0
2020-Jul-04 18:50 279 2 gusting 12 31.7
2020-Jul-04 18:40 255 4 gusting 14 31.6
2020-Jul-04 18:30 254 8 gusting 13 31.7
2020-Jul-04 18:20 244 2 gusting 11 31.8
2020-Jul-04 18:10 231 6 gusting 12 31.3
2020-Jul-04 18:00 235 11 gusting 13 32.1
2020-Jul-04 17:50 202 6 gusting 11 32.4
2020-Jul-04 17:40 233 8 gusting 10 32.2
2020-Jul-04 17:30 202 4 gusting 10 31.6
2020-Jul-04 17:20 284 3 gusting 10 31.7
2020-Jul-04 17:10 292 3 gusting 10 32.0
2020-Jul-04 17:00 247 4 gusting 9 31.4
2020-Jul-04 16:50 230 4 gusting 9 31.5
2020-Jul-04 16:40 254 7 gusting 8 31.8
2020-Jul-04 16:30 272 7 gusting 9 31.7
2020-Jul-04 16:20 263 1 gusting 10 31.2
2020-Jul-04 16:10 279 5 gusting 9 31.2
2020-Jul-04 16:00 215 6 gusting 8 31.4
2020-Jul-04 15:50 237 3 gusting 9 31.3
2020-Jul-04 15:40 263 6 gusting 8 30.7
2020-Jul-04 15:30 250 2 gusting 8 31.4
2020-Jul-04 15:20 257 4 gusting 9 31.1
2020-Jul-04 15:10 253 2 gusting 7 30.7
2020-Jul-04 15:00 243 2 gusting 8 30.8
2020-Jul-04 14:50 259 3 gusting 6 30.0
2020-Jul-04 14:40 232 4 gusting 10 30.0
2020-Jul-04 14:30 217 2 gusting 7 29.5
2020-Jul-04 14:20 315 1 gusting 4 29.1
2020-Jul-04 14:10 260 0 gusting 2 28.8
2020-Jul-04 14:00 28.8
2020-Jul-04 13:50 096 1 gusting 6 28.9
2020-Jul-04 13:40 087 3 gusting 6 28.9
2020-Jul-04 13:30 012 1 gusting 6 28.9
2020-Jul-04 13:20 101 1 gusting 3 28.9
2020-Jul-04 13:10 095 1 gusting 2 28.5
2020-Jul-04 13:00 113 1 gusting 4 28.2
2020-Jul-04 12:50 182 0 gusting 4 28.2
2020-Jul-04 12:30 089 2 gusting 5 27.8
2020-Jul-04 12:20 082 1 gusting 3 27.7
2020-Jul-04 12:10 055 1 gusting 2 27.6
2020-Jul-04 12:00 033 0 gusting 3 26.9
2020-Jul-04 11:40 052 1 gusting 5 26.3
2020-Jul-04 11:30 043 2 gusting 3 25.8
2020-Jul-04 11:10 094 3 gusting 3 25.7
2020-Jul-04 11:00 074 0 gusting 3 25.6
2020-Jul-04 10:40 101 0 gusting 5 25.7
2020-Jul-04 10:30 076 1 gusting 2 25.8
2020-Jul-04 10:20 088 1 gusting 2 25.9
2020-Jul-04 10:10 086 0 gusting 3 25.9
2020-Jul-04 10:00 094 1 gusting 2 26.1
2020-Jul-04 09:50 094 1 gusting 2 26.4
2020-Jul-04 09:40 094 0 gusting 3 26.6
2020-Jul-04 09:30 048 1 gusting 2 26.7
2020-Jul-04 09:20 044 2 gusting 3 26.8
2020-Jul-04 09:10 044 1 gusting 2 26.9
2020-Jul-04 09:00 27.9
2020-Jul-04 08:50 27.9
2020-Jul-04 08:40 304 1 gusting 1 27.5
2020-Jul-04 08:30 27.4
2020-Jul-04 08:20 283 3 gusting 5 27.7
2020-Jul-04 08:10 27.7
2020-Jul-04 08:00 286 0 gusting 1 27.9
2020-Jul-04 07:50 286 1 gusting 1 27.9
2020-Jul-04 07:40 286 0 gusting 1 27.9
2020-Jul-04 07:30 286 1 gusting 2 27.9
2020-Jul-04 07:20 286 0 gusting 2 27.9
2020-Jul-04 07:10 286 0 gusting 5 27.9
2020-Jul-04 07:00 269 0 gusting 1 28.1
2020-Jul-04 06:50 266 0 gusting 1 28.2
2020-Jul-04 06:40 266 0 gusting 3 28.1
2020-Jul-04 06:30 267 0 gusting 3 28.0
2020-Jul-04 06:20 276 2 gusting 3 27.9
2020-Jul-04 06:10 279 1 gusting 3 28.0
2020-Jul-04 06:00 28.2
2020-Jul-04 05:50 28.3
2020-Jul-04 05:40 278 1 gusting 2 28.3
2020-Jul-04 05:30 279 0 gusting 2 28.3
2020-Jul-04 05:20 271 0 gusting 2 28.3
2020-Jul-04 05:10 271 1 gusting 5 28.3
2020-Jul-04 05:00 290 0 gusting 3 28.4
2020-Jul-04 04:50 290 0 gusting 3 28.4
2020-Jul-04 04:40 259 1 gusting 5 28.6
2020-Jul-04 04:30 263 1 gusting 3 28.6
2020-Jul-04 04:10 275 2 gusting 3 28.6
2020-Jul-04 03:50 259 28.6
2020-Jul-04 03:40 259 0 gusting 3 28.7
2020-Jul-04 03:30 275 0 gusting 2 28.6
2020-Jul-04 03:20 296 1 gusting 1 28.6
2020-Jul-04 03:10 296 0 gusting 1 28.7
2020-Jul-04 02:50 292 0 gusting 3 28.8
2020-Jul-04 02:40 278 1 gusting 6 28.8
2020-Jul-04 02:30 288 1 gusting 5 28.8
2020-Jul-04 02:20 275 2 gusting 5 28.8
2020-Jul-04 02:10 292 0 gusting 5 28.9
2020-Jul-04 01:50 302 4 gusting 6 28.9
2020-Jul-04 01:40 28.9
2020-Jul-04 01:30 292 0 gusting 4 29.1
2020-Jul-04 01:20 276 1 gusting 4 29.1
2020-Jul-04 01:10 318 1 gusting 7 29.3
2020-Jul-04 01:00 288 2 gusting 7 29.3
2020-Jul-04 00:50 281 0 gusting 7 29.3
2020-Jul-04 00:40 279 5 gusting 5 29.4
2020-Jul-04 00:30 315 1 gusting 7 29.5
2020-Jul-04 00:20 260 2 gusting 5 29.6
2020-Jul-04 00:10 271 2 gusting 6 29.8
2020-Jul-04 00:00 258 8 gusting 8 30.3
2020-Jul-03 23:50 276 3 gusting 7 30.3
2020-Jul-03 23:40 258 3 gusting 8 30.6
2020-Jul-03 23:30 277 1 gusting 10 30.4
2020-Jul-03 23:20 266 5 gusting 8 30.8
2020-Jul-03 23:10 267 3 gusting 7 31.0
2020-Jul-03 23:00 243 3 gusting 9 31.1
2020-Jul-03 22:50 324 3 gusting 9 31.1
2020-Jul-03 22:40 240 3 gusting 10 31.2
2020-Jul-03 22:30 277 5 gusting 10 31.3
2020-Jul-03 22:20 298 2 gusting 10 31.4
2020-Jul-03 22:10 286 7 gusting 9 31.6
2020-Jul-03 22:00 279 3 gusting 12 31.6
2020-Jul-03 21:50 259 1 gusting 10 31.6
2020-Jul-03 21:40 284 3 gusting 11 31.6
2020-Jul-03 21:30 272 3 gusting 11 31.8
2020-Jul-03 21:20 229 6 gusting 10 31.6
2020-Jul-03 21:10 216 6 gusting 12 31.6
2020-Jul-03 21:00 247 12 gusting 12 31.7
2020-Jul-03 20:50 279 7 gusting 11 32.1
2020-Jul-03 20:30 259 2 gusting 8 32.1
2020-Jul-03 20:20 309 8 gusting 9 32.3
2020-Jul-03 20:10 222 5 gusting 13 31.7
2020-Jul-03 20:00 281 3 gusting 13 31.6
2020-Jul-03 19:50 249 8 gusting 13 31.6
2020-Jul-03 19:40 236 8 gusting 10 32.1
2020-Jul-03 19:30 248 8 gusting 12 32.2
2020-Jul-03 19:20 259 7 gusting 14 32.1
2020-Jul-03 19:10 271 8 gusting 12 32.5
2020-Jul-03 19:00 296 7 gusting 12 32.5
2020-Jul-03 18:50 303 10 gusting 11 32.2
2020-Jul-03 18:40 320 2 gusting 11 32.5
2020-Jul-03 18:30 273 7 gusting 11 32.5
2020-Jul-03 18:20 327 3 gusting 13 32.0
2020-Jul-03 18:10 267 2 gusting 12 32.2
2020-Jul-03 18:00 302 2 gusting 11 31.9
2020-Jul-03 17:50 275 8 gusting 11 32.2
2020-Jul-03 17:40 274 3 gusting 10 32.0
2020-Jul-03 17:30 273 3 gusting 8 32.1
2020-Jul-03 17:20 279 6 gusting 11 31.6
2020-Jul-03 17:10 282 1 gusting 8 31.3
2020-Jul-03 17:00 284 6 gusting 11 31.7
2020-Jul-03 16:50 311 4 gusting 9 32.2
2020-Jul-03 16:40 300 7 gusting 9 32.3
2020-Jul-03 16:30 301 2 gusting 8 32.6
2020-Jul-03 16:10 348 1 gusting 7 32.3
2020-Jul-03 16:00 251 1 gusting 9 31.8
2020-Jul-03 15:50 246 9 gusting 9 31.8
2020-Jul-03 15:40 272 8 gusting 9 31.6
2020-Jul-03 15:30 294 2 gusting 8 31.7
2020-Jul-03 15:20 266 6 gusting 9 31.4
2020-Jul-03 15:10 249 2 gusting 10 30.8
2020-Jul-03 15:00 302 7 gusting 10 30.8
2020-Jul-03 14:50 304 3 gusting 10 30.8
2020-Jul-03 14:40 263 1 gusting 10 30.4
2020-Jul-03 14:30 287 6 gusting 9 30.3
2020-Jul-03 14:20 269 1 gusting 8 30.0
2020-Jul-03 14:10 286 2 gusting 8 29.8
2020-Jul-03 14:00 314 0 gusting 3 28.9
2020-Jul-03 13:50 306 1 gusting 3 28.9
2020-Jul-03 13:40 199 0 gusting 1 28.8
2020-Jul-03 13:30 27.9
2020-Jul-03 13:20 151 0 gusting 1 26.9
2020-Jul-03 13:10 151 1 gusting 2 26.2
2020-Jul-03 13:00 286 0 gusting 15 25.9
2020-Jul-03 12:50 265 8 gusting 17 29.4
2020-Jul-03 12:40 297 1 gusting 6 30.1
2020-Jul-03 12:30 333 3 gusting 6 29.7
2020-Jul-03 12:20 312 1 gusting 3 29.2
2020-Jul-03 12:10 313 1 gusting 6 28.9
2020-Jul-03 12:00 284 2 gusting 8 29.1
2020-Jul-03 11:50 294 4 gusting 6 29.1
2020-Jul-03 11:40 288 2 gusting 6 28.8
2020-Jul-03 11:30 28.5
2020-Jul-03 11:20 294 1 gusting 4 28.4
2020-Jul-03 11:10 276 3 gusting 5 28.4
2020-Jul-03 11:00 292 2 gusting 3 28.3
2020-Jul-03 10:40 28.4
2020-Jul-03 10:30 324 2 gusting 6 28.4
2020-Jul-03 10:20 290 3 gusting 6 28.4
2020-Jul-03 10:10 275 1 gusting 6 28.4
2020-Jul-03 10:00 257 2 gusting 8 28.4
2020-Jul-03 09:40 247 4 gusting 5 28.3
2020-Jul-03 09:30 254 0 gusting 8 28.3
2020-Jul-03 09:20 246 3 gusting 6 28.2
2020-Jul-03 09:10 254 1 gusting 3 28.2
2020-Jul-03 09:00 242 1 gusting 5 28.3
2020-Jul-03 08:40 254 2 gusting 6 28.3
2020-Jul-03 08:30 242 4 gusting 6 28.2
2020-Jul-03 08:20 243 1 gusting 6 28.2
2020-Jul-03 08:10 263 1 gusting 6 28.2
2020-Jul-03 08:00 261 2 gusting 4 28.2
2020-Jul-03 07:40 269 3 gusting 6 28.3
2020-Jul-03 07:30 260 2 gusting 6 28.4
2020-Jul-03 07:20 242 5 gusting 6 28.3
2020-Jul-03 07:10 267 3 gusting 6 28.4
2020-Jul-03 07:00 259 5 gusting 8 28.4
2020-Jul-03 06:40 266 1 gusting 5 28.4
2020-Jul-03 06:30 262 0 gusting 3 28.4
2020-Jul-03 06:20 261 1 gusting 4 28.4
2020-Jul-03 06:10 259 1 gusting 4 28.4
2020-Jul-03 06:00 264 1 gusting 6 28.5
2020-Jul-03 05:40 259 3 gusting 3 28.5
2020-Jul-03 05:30 261 1 gusting 3 28.5
2020-Jul-03 05:20 253 1 gusting 2 28.4
2020-Jul-03 05:10 257 1 gusting 4 28.4
2020-Jul-03 05:00 271 0 gusting 3 28.4
2020-Jul-03 04:40 271 1 gusting 3 28.5
2020-Jul-03 04:30 278 0 gusting 3 28.4
2020-Jul-03 04:20 272 0 gusting 2 28.6
2020-Jul-03 04:10 265 1 gusting 5 28.6
2020-Jul-03 04:00 267 1 gusting 6 28.6